N4DWK Weather Reports


Display with metric or nautical units.
time (UTC)temp
F
wind
direction
speed
MPH
gust
MPH
rain 1hr
in
rain 24hr
in
rain mn
in
humidity
%
barometer
mb
20260503212507 66 327 2.0 9.0 0.00 0.00 0.00 32 1015.7
20260503212009 66 320 3.0 9.0 0.00 0.00 0.00 32 1015.8
20260503211508 67 242 3.0 7.0 0.00 0.00 0.00 32 1015.8
20260503211008 66 348 3.0 7.0 0.00 0.00 0.00 34 1015.7
20260503210509 67 157 2.0 5.0 0.00 0.00 0.00 33 1015.8
20260503210007 67 318 2.0 6.0 0.00 0.00 0.00 33 1015.8
20260503205508 66 295 2.0 6.0 0.00 0.00 0.00 34 1015.8
20260503205008 67 7 3.0 7.0 0.00 0.00 0.00 35 1015.8
20260503204507 66 332 4.0 8.0 0.00 0.00 0.00 34 1015.7
20260503204009 66 246 3.0 16.0 0.00 0.00 0.00 33 1015.8
20260503203508 65 0 6.0 16.0 0.00 0.00 0.00 35 1015.7
20260503203008 65 242 2.0 9.0 0.00 0.00 0.00 34 1015.7
20260503202507 65 226 4.0 9.0 0.00 0.00 0.00 34 1015.8
20260503202007 65 224 5.0 9.0 0.00 0.00 0.00 33 1015.9
20260503201507 67 244 2.0 6.0 0.00 0.00 0.00 34 1016.0
20260503201008 66 208 2.0 9.0 0.00 0.00 0.00 34 1015.9
20260503200508 66 14 3.0 9.0 0.00 0.00 0.00 34 1016.1
20260503200008 65 342 3.0 8.0 0.00 0.00 0.00 36 1016.1
20260503195507 65 205 2.0 9.0 0.00 0.00 0.00 35 1016.3
20260503195007 65 236 4.0 10.0 0.00 0.00 0.00 34 1016.4
20260503194507 66 10 3.0 10.0 0.00 0.00 0.00 35 1016.4
20260503194008 67 308 2.0 6.0 0.00 0.00 0.00 32 1016.5
20260503193508 67 356 2.0 7.0 0.00 0.00 0.00 35 1016.5
20260503193008 66 238 1.0 7.0 0.00 0.00 0.00 35 1016.5
20260503192507 66 224 2.0 6.0 0.00 0.00 0.00 34 1016.6
20260503192007 65 280 2.0 8.0 0.00 0.00 0.00 36 1016.7
20260503191508 66 340 2.0 8.0 0.00 0.00 0.00 36 1016.7
20260503191008 66 0 4.0 8.0 0.00 0.00 0.00 38 1016.9
20260503190507 65 344 2.0 6.0 0.00 0.00 0.00 36 1017.0
20260503190008 64 293 3.0 8.0 0.00 0.00 0.00 36 1017.1
20260503185509 66 245 2.0 8.0 0.00 0.00 0.00 34 1017.2
20260503185007 65 7 2.0 8.0 0.00 0.00 0.00 36 1017.2
20260503184507 65 5 2.0 8.0 0.00 0.00 0.00 37 1017.2
20260503184008 65 282 4.0 8.0 0.00 0.00 0.00 37 1017.3
20260503183507 64 9 2.0 9.0 0.00 0.00 0.00 36 1017.3
20260503183009 65 325 3.0 9.0 0.00 0.00 0.00 38 1017.4
20260503182507 63 8 1.0 9.0 0.00 0.00 0.00 39 1017.4
20260503182007 63 305 2.0 9.0 0.00 0.00 0.00 37 1017.5
20260503181507 63 270 3.0 9.0 0.00 0.00 0.00 40 1017.6
20260503181008 62 301 3.0 9.0 0.00 0.00 0.00 39 1017.5
20260503180508 62 231 2.0 9.0 0.00 0.00 0.00 40 1017.4
20260503180007 62 222 5.0 9.0 0.00 0.00 0.00 38 1017.6
20260503175507 62 201 2.0 10.0 0.00 0.00 0.00 39 1017.5
20260503175007 63 233 3.0 10.0 0.00 0.00 0.00 39 1017.6
20260503174508 62 15 4.0 7.0 0.00 0.00 0.00 38 1017.5
20260503174007 63 355 2.0 12.0 0.00 0.00 0.00 39 1017.6
20260503173507 61 0 5.0 12.0 0.00 0.00 0.00 38 1017.7
20260503173008 62 268 3.0 8.0 0.00 0.00 0.00 41 1017.7
20260503172507 61 240 4.0 8.0 0.00 0.00 0.00 38 1017.8
20260503172008 61 254 3.0 9.0 0.00 0.00 0.00 39 1017.8
20260503171507 61 6 3.0 9.0 0.00 0.00 0.00 39 1017.8
20260503171007 61 214 3.0 9.0 0.00 0.00 0.00 40 1017.9
20260503170507 61 344 4.0 8.0 0.00 0.00 0.00 39 1018.1
20260503151008 54 347 5.0 12.0 0.00 0.00 0.00 44 1018.9
20260503150508 54 5 4.0 12.0 0.00 0.00 0.00 44 1019.0
20260503131007 51 20 5.0 15.0 0.00 0.00 0.00 55 1018.7
20260503130507 51 358 5.0 15.0 0.00 0.00 0.00 57 1018.7
20260503110507 42 10 0.0 0.0 0.00 0.00 0.00 77 1017.7
20260503090507 47 5 0.0 5.0 0.00 0.00 0.00 65 1015.8
20260503081507 49 23 2.0 6.0 0.00 0.00 0.00 62 1015.3
20260503081007 49 9 2.0 8.0 0.00 0.00 0.00 62 1015.3
20260503080506 49 6 5.0 8.0 0.00 0.00 0.00 62 1015.3
20260503072507 50 26 1.0 6.0 0.00 0.00 0.00 61 1014.9
20260503072007 50 38 1.0 7.0 0.00 0.00 0.00 61 1014.8
20260503071509 50 17 4.0 7.0 0.00 0.00 0.00 60 1014.7
20260503071006 51 2 2.0 9.0 0.00 0.00 0.00 60 1014.6
20260503070507 51 331 3.0 12.0 0.00 0.00 0.00 60 1014.6
20260503055006 52 8 3.0 8.0 0.00 0.00 0.00 61 1014.0
20260503054506 52 339 2.0 7.0 0.00 0.00 0.00 61 1014.0
20260503054007 52 346 2.0 7.0 0.00 0.00 0.00 61 1013.9
20260503053506 52 4 5.0 8.0 0.00 0.00 0.00 61 1013.9
20260503053007 53 27 3.0 8.0 0.00 0.00 0.00 61 1013.9
20260503052507 53 341 3.0 8.0 0.00 0.00 0.00 62 1014.0
20260503052007 53 22 5.0 8.0 0.00 0.00 0.00 62 1014.0
20260503051506 53 2 3.0 6.0 0.00 0.00 0.00 62 1013.9
20260503051006 53 348 2.0 5.0 0.00 0.00 0.00 62 1013.9
20260503050507 53 348 0.0 8.0 0.00 0.00 0.00 62 1013.9
20260503050006 53 359 3.0 8.0 0.00 0.00 0.00 62 1013.9
20260503045507 53 8 4.0 6.0 0.00 0.00 0.00 62 1013.9
20260503045007 53 348 3.0 5.0 0.00 0.00 0.00 62 1013.9
20260503044506 53 352 3.0 5.0 0.00 0.00 0.00 62 1013.8
20260503044007 53 5 2.0 7.0 0.00 0.00 0.00 62 1013.8
20260503043506 53 18 3.0 7.0 0.00 0.00 0.00 62 1013.8
20260503043006 53 357 2.0 5.0 0.00 0.00 0.00 63 1013.8
20260503042508 53 358 2.0 5.0 0.00 0.00 0.00 63 1013.7
20260503042006 53 5 1.0 3.0 0.00 0.00 0.00 65 1013.6
20260503041507 53 292 0.0 3.0 0.00 0.00 0.00 65 1013.7
20260503041006 53 292 1.0 3.0 0.00 0.00 0.00 66 1013.7
20260503040508 53 51 1.0 2.0 0.00 0.00 0.00 66 1013.7
20260503040006 53 51 0.0 2.0 0.00 0.00 0.00 68 1013.7
20260503035506 53 51 1.0 2.0 0.00 0.00 0.00 69 1013.8
20260503035006 53 51 0.0 0.0 0.00 0.00 0.00 70 1013.8
20260503034507 53 51 0.0 0.0 0.00 0.00 0.00 70 1013.8
20260503034007 53 51 0.0 0.0 0.00 0.00 0.00 70 1013.8
20260503033506 53 51 0.0 0.0 0.00 0.00 0.00 69 1013.8
20260503033006 53 51 0.0 0.0 0.00 0.00 0.00 68 1013.7
20260503032505 53 51 0.0 0.0 0.00 0.00 0.00 68 1013.7
20260503032006 54 51 0.0 0.0 0.00 0.00 0.00 68 1013.7
20260503031506 54 51 0.0 0.0 0.00 0.00 0.00 69 1013.7
20260503031006 54 51 0.0 0.0 0.00 0.00 0.00 68 1013.7
20260503030505 54 51 0.0 0.0 0.00 0.00 0.00 68 1013.6
20260503030006 54 51 0.0 0.0 0.00 0.00 0.00 68 1013.7
20260503025506 54 51 0.0 0.0 0.00 0.00 0.00 67 1013.7
20260503025006 54 51 0.0 0.0 0.00 0.00 0.00 67 1013.7
20260503024506 54 51 0.0 0.0 0.00 0.00 0.00 66 1013.7
20260503024006 54 51 0.0 0.0 0.00 0.00 0.00 66 1013.7
20260503023506 54 51 0.0 0.0 0.00 0.00 0.00 65 1013.6
20260503023006 54 51 0.0 0.0 0.00 0.00 0.00 65 1013.6
20260503022506 55 51 0.0 0.0 0.00 0.00 0.00 64 1013.6
20260503022006 55 51 0.0 0.0 0.00 0.00 0.00 63 1013.6
20260503021506 55 51 0.0 0.0 0.00 0.00 0.00 64 1013.5
20260503021006 55 51 0.0 0.0 0.00 0.00 0.00 62 1013.5
20260503020506 55 51 0.0 0.0 0.00 0.00 0.00 62 1013.4
20260503020006 55 51 0.0 0.0 0.00 0.00 0.00 61 1013.4
20260503015506 55 51 0.0 0.0 0.00 0.00 0.00 61 1013.4
20260503015006 55 51 0.0 0.0 0.00 0.00 0.00 61 1013.4
20260503014506 56 51 0.0 0.0 0.00 0.00 0.00 60 1013.4
20260503014006 56 51 0.0 0.0 0.00 0.00 0.00 60 1013.4
20260503013506 56 51 0.0 0.0 0.00 0.00 0.00 59 1013.3
20260503013005 56 51 0.0 0.0 0.00 0.00 0.00 58 1013.3
20260503012505 56 51 0.0 0.0 0.00 0.00 0.00 57 1013.3
20260503012006 56 51 0.0 0.0 0.00 0.00 0.00 57 1013.2
20260503011506 56 51 0.0 0.0 0.00 0.00 0.00 57 1013.2
20260503011006 56 51 0.0 0.0 0.00 0.00 0.00 57 1013.2
20260503010506 56 51 0.0 1.0 0.00 0.00 0.00 57 1013.2
20260503010006 56 51 0.0 1.0 0.00 0.00 0.00 57 1013.2
20260503005506 56 51 0.0 3.0 0.00 0.00 0.00 57 1013.1
20260503005006 56 46 0.0 3.0 0.00 0.00 0.00 57 1013.0
20260503004506 56 46 2.0 3.0 0.00 0.00 0.00 58 1012.9
20260503004006 55 5 1.0 3.0 0.00 0.00 0.00 58 1012.8
20260503003506 55 5 1.0 3.0 0.00 0.00 0.00 59 1012.8
20260503003006 55 11 0.0 2.0 0.00 0.00 0.00 60 1012.7
20260503002506 56 11 0.0 0.0 0.00 0.00 0.00 58 1012.6
20260503002006 56 5 0.0 0.0 0.00 0.00 0.00 59 1012.5
20260503001505 56 5 0.0 0.0 0.00 0.00 0.00 58 1012.5
20260503001006 56 5 0.0 0.0 0.00 0.00 0.00 57 1012.5
20260503000506 57 5 0.0 0.0 0.00 0.00 0.00 56 1012.4
20260503000005 57 5 0.0 0.0 0.00 0.00 0.00 57 1012.3
20260502235505 57 5 0.0 0.0 0.00 0.00 0.00 55 1012.2
20260502235006 57 5 0.0 0.0 0.00 0.00 0.00 55 1012.0
20260502234506 58 5 0.0 1.0 0.00 0.00 0.00 54 1012.0
20260502234006 58 5 0.0 2.0 0.00 0.00 0.00 53 1011.9
20260502233506 58 5 1.0 3.0 0.00 0.00 0.00 52 1011.9
20260502233006 58 5 1.0 5.0 0.00 0.00 0.00 52 1011.9
20260502232506 58 5 1.0 6.0 0.00 0.00 0.00 51 1011.8
20260502232006 58 355 3.0 6.0 0.00 0.00 0.00 52 1011.8
20260502231506 58 11 2.0 6.0 0.00 0.00 0.00 52 1011.7
20260502231006 58 356 2.0 5.0 0.00 0.00 0.00 52 1011.6
20260502230506 59 6 2.0 5.0 0.00 0.00 0.00 51 1011.6
20260502230005 59 335 2.0 7.0 0.00 0.00 0.00 52 1011.6
20260502225505 59 0 1.0 7.0 0.00 0.00 0.00 50 1011.5
20260502225007 59 24 3.0 7.0 0.00 0.00 0.00 50 1011.5
20260502224505 59 15 1.0 7.0 0.00 0.00 0.00 51 1011.5
20260502224007 60 32 2.0 7.0 0.00 0.00 0.00 49 1011.4
20260502223506 60 43 1.0 7.0 0.00 0.00 0.00 49 1011.4
20260502223006 60 48 3.0 7.0 0.00 0.00 0.00 49 1011.4
20260502222506 60 2 2.0 7.0 0.00 0.00 0.00 50 1011.5
20260502222006 60 36 1.0 7.0 0.00 0.00 0.00 49 1011.4
20260502221505 60 45 2.0 9.0 0.00 0.00 0.00 49 1011.4
20260502221005 61 43 2.0 9.0 0.00 0.00 0.00 49 1011.5
20260502220505 61 49 2.0 5.0 0.00 0.00 0.00 48 1011.6
20260502220006 61 347 2.0 7.0 0.00 0.00 0.00 47 1011.7
20260502215505 60 346 1.0 7.0 0.00 0.00 0.00 50 1011.8
20260502215005 60 3 2.0 9.0 0.00 0.00 0.00 50 1011.8
20260502214505 60 12 3.0 9.0 0.00 0.00 0.00 48 1011.7
20260502214005 60 333 2.0 5.0 0.00 0.00 0.00 49 1011.8
20260502213505 60 12 2.0 7.0 0.00 0.00 0.00 50 1011.8
20260502213006 60 48 2.0 7.0 0.00 0.00 0.00 49 1011.7